Lid_Strength_Index
0 0 0 0 -0 -0 -0 -0 -1 -1 -1 -1 -0 -0 -0 -1 -1 -0 -0 -0 0 0 -0 0 0 -0 0 2 1 2 1 1 3 2 1 1 1 -0 -1 -2 -1 -1 -1
0 -0 -0 -0 -0 -0 -0 -0 -1 -0 -1 -1 -0 -0 -0 -0 -0 -0 0 0 0 1 1 0 1 0 0 1 2 0 0 -0 2 3 1 2 1 -1 -1 -1 -0 0 -1
0 0 0 0 0 -0 -0 -0 -1 -0 -0 -0 -0 0 -0 0 -0 -0 -0 0 0 0 1 1 1 0 1 2 2 1 0 0 1 2 2 1 1 0 0 -1 -1 -1 1
1 0 0 0 0 0 -0 -0 -0 -0 -0 -0 -0 -0 0 0 0 -0 0 0 0 0 1 0 0 0 1 2 2 0 0 1 1 1 2 1 2 1 2 1 1 1 2
1 1 1 0 0 -0 0 0 -0 -0 -0 -0 0 -0 -0 0 0 0 0 0 0 0 0 0 0 1 4 3 3 1 0 1 1 2 2 2 2 2 3 2 4 4 4
1 2 1 1 1 0 0 0 0 0 0 0 0 0 0 0 5 5 1 0 0 0 2 0 1 4 5 5 5 4 2 1 1 2 2 2 1 1 2 3 3 5 5
2 2 2 1 1 1 1 1 1 0 1 1 0 0 1 0 5 6 5 0 0 1 1 1 1 3 4 4 6 4 5 3 1 0 1 1 1 0 1 1 3 3 5
1 2 1 1 1 1 1 1 1 1 1 1 1 0 0 1 7 6 5 0 0 0 0 1 1 3 3 4 3 2 3 3 3 0 -0 -0 -0 -1 -1 0 1 2 3
2 2 1 1 1 1 1 1 1 1 1 1 0 1 1 0 6 5 3 1 1 1 1 1 0 1 6 6 3 2 2 3 6 6 4 3 3 2 1 -0 2 3 4
1 1 1 1 1 1 1 1 1 1 1 0 1 0 3 0 6 7 5 1 1 1 0 0 3 1 6 7 3 2 3 2 4 4 5 4 2 2 1 -1 0 3 3
0 0 0 0 1 1 1 1 1 1 1 1 1 0 0 1 0 9 8 1 1 2 1 1 2 7 8 9 8 1 1 2 3 3 3 3 1 0 -0 -1 -1 0 2
0 0 0 0 1 1 1 1 1 1 1 1 1 1 1 -0 5 8 8 7 3 1 1 1 3 8 10 10 8 8 6 4 2 3 3 4 2 2 1 -1 -1 -1 -1
0 1 1 0 0 0 1 1 1 1 2 2 2 2 1 1 0 7 9 8 7 2 0 2 7 11 11 9 9 8 7 3 2 3 3 3 3 3 2 0 -1 -2 -2
1 1 0 1 1 0 1 1 1 2 2 2 2 3 2 1 1 2 4 3 7 4 5 5 7 8 8 6 7 6 3 2 3 3 3 3 3 3 3 3 1 0 1
1 1 1 1 1 1 1 1 1 1 4 3 2 4 3 2 6 11 10 3 3 4 5 5 7 7 7 5 5 5 3 2 3 3 3 3 4 3 3 3 3 1 1
1 1 1 1 1 1 1 1 6 7 10 13 14 11 4 9 13 13 12 13 12 11 5 6 7 7 6 5 5 5 3 2 2 2 3 3 3 3 3 3 3 2 1
1 1 1 1 1 1 1 2 3 2 9 11 12 13 13 13 14 15 14 13 14 10 4 5 6 7 6 5 3 3 3 2 1 2 3 3 3 4 4 4 4 3 1
0 3 1 1 1 1 1 1 2 2 3 2 9 9 11 13 13 14 14 12 7 8 3 5 5 6 6 5 2 2 2 2 2 2 3 4 4 3 4 4 4 4 3
1 1 1 1 1 1 1 1 2 2 2 2 2 7 8 11 12 14 13 4 4 4 4 4 3 3 3 3 3 3 3 3 3 3 3 4 3 3 4 4 4 7 6
0 1 1 1 1 1 1 1 2 2 2 2 3 5 7 7 4 2 3 3 2 3 2 3 4 5 5 5 5 5 5 4 5 4 4 4 4 3 4 4 4 4 4
0 0 1 0 1 1 1 1 2 2 2 2 4 6 12 9 6 4 5 6 5 5 4 2 1 1 2 3 4 4 5 5 5 5 4 4 4 4 3 3 3 4 5
0 0 0 1 1 1 2 1 1 2 2 3 4 5 11 7 7 7 7 7 7 7 7 5 4 3 2 2 3 4 4 5 6 5 5 5 4 4 4 4 4 4 5
0 1 1 1 2 3 3 2 2 2 3 3 4 6 7 8 9 9 8 8 9 8 7 7 5 5 4 3 2 3 4 4 5 5 5 5 4 4 5 4 4 4 4
1 1 2 2 3 4 4 5 4 5 4 4 5 6 7 9 10 11 10 9 9 9 10 9 9 9 8 7 5 3 3 3 3 4 5 5 5 6 4 4 3 3 4
2 2 3 4 5 6 6 6 6 6 6 6 7 7 8 9 9 10 11 12 12 12 11 10 11 11 11 10 9 9 15 19 8 8 4 5 5 5 5 4 3 4 4
2 2 4 4 5 6 6 7 7 7 7 7 8 9 9 9 10 10 10 11 12 10 11 10 10 10 9 10 11 17 19 20 14 17 4 4 5 5 6 3 3 3 4